Location: Hodgson Observatory
(42.9992°N, 96.7577°W)
Time: 18:15:38
(UTC-05:00)

Daily predictions for brighter satellites

Satellite Brightness Start Highest point End
(mag) Time Altitude Azimuth Time Altitude Azimuth Time Altitude Azimuth
Cosmos 1777 Rocket 4.1 20:33:36 10° NNW 20:38:50 64° ENE 20:44:03 10° SSE
Cosmos 2297 Rocket 3.3 20:36:46 10° N 20:41:40 29° NE 20:46:32 10° ESE
Meteor 2-21 4.5 20:35:33 10° S 20:41:43 73° E 20:47:53 10° NNE
Cosmos 2123 Rocket 4.3 20:37:54 10° N 20:43:51 47° ENE 20:49:45 10° SSE
Lacrosse 5 3.6 20:42:11 10° NNW 20:46:09 23° NNE 20:50:09 10° ENE
Meteor 1-11 Rocket 4.2 20:43:33 10° SSW 20:49:07 68° WNW 20:54:39 10° N
Cosmos 2208 Rocket 4.4 20:45:52 10° S 20:50:51 43° ESE 20:55:56 10° NNE
Helios 1A 4.3 20:47:37 10° S 20:51:35 42° W 20:55:35 10° NNW
H-2A R/B 3.9 20:49:57 10° E 20:52:09 14° ENE 20:54:22 10° NNE
Cosmos 1892 Rocket 3.6 20:48:03 10° N 20:52:32 73° E 20:57:01 10° SSE
Okean 2 3.4 20:50:08 10° N 20:54:18 65° E 20:58:25 10° SSE
Meteor 2-15 4.4 20:49:43 10° N 20:55:48 70° E 21:01:49 10° SSE
Resurs 1-3 4.5 20:51:44 10° S 20:55:59 53° W 21:00:19 10° NNW
Cosmos 1025 Rocket 3.7 20:53:28 10° NNW 20:57:48 61° W 21:02:04 10° S
BREEZE-M DEB (TANK) 4.4 20:55:30 10° SSW 20:59:24 49° SE 21:12:09 10° ENE
Cosmos 1455 Rocket 3.1 20:55:28 10° S 20:59:40 54° E 21:03:55 10° NNE
Meteor 2-15 Rocket 4.5 20:54:35 10° N 21:00:39 65° E 21:06:40 10° SSE
Cosmos 1975 3.9 20:57:19 10° SE 21:00:45 26° E 21:04:10 10° NNE
Meteor 2-14 Rocket 4.4 20:54:39 10° S 21:00:47 75° E 21:06:56 10° NNE
Cosmos 1602 Rocket 4.4 20:58:20 10° N 21:02:24 33° ENE 21:06:22 10° SE
NOSS 3-4 (A) 3.9 20:56:05 10° NW 21:03:06 80° NE 21:10:33 10° SE
NOSS 3-4 (C) 3.9 20:56:12 10° NW 21:03:13 79° NE 21:10:40 10° SE
Cosmos 2219 4.4 20:58:21 10° NW 21:03:37 42° WSW 21:08:51 10° S
EO 1 Delta rocket 3.9 21:00:02 10° NNE 21:04:39 67° E 21:09:46 10° S
Cosmos 1570 Rocket 4.0 21:04:02 10° S 21:09:17 69° ESE 21:14:33 10° NNE
Cosmos 1461 3.0 21:06:36 10° NNW 21:10:38 55° NE 21:13:43 15° SE
Lacrosse 5 rocket 1.9 21:07:15 10° NW 21:10:48 38° NE 21:13:22 16° E
Resurs 01 Rocket 3.7 21:07:03 10° SSW 21:10:53 28° W 21:14:45 10° NW
Tiangong 1 0.9 21:11:27 10° WSW 21:14:33 74° S 21:16:48 17° E
Envisat 3.6 21:11:14 13° SE 21:15:24 38° ENE 21:20:05 10° N
CZ-4 DEB 3.0 21:14:52 15° SE 21:17:16 47° ENE 21:20:19 10° N
Cosmos 1934 Rocket 4.1 21:12:29 10° S 21:18:37 85° W 21:24:52 10° N
Meteor 1-12 Rocket 4.4 21:14:03 10° S 21:19:35 54° E 21:25:15 10° NNE
USA 186 2.3 21:17:12 10° S 21:20:19 56° W 21:23:15 10° NNW
Cosmos 2278 3.6 21:16:45 10° SSW 21:22:22 70° ESE 21:28:03 10° NNE
Cosmos 1697 Rocket 3.6 21:18:12 10° SSE 21:22:46 26° ESE 21:27:20 10° NE
OTV 4 1.6 21:20:09 10° WSW 21:22:47 28° S 21:23:53 22° SSE
H-2A R/B 3.7 21:21:58 10° S 21:25:42 48° W 21:29:32 10° NNW
DELTA 2 R/B (1) 3.7 21:20:25 10° W 21:25:55 61° S 21:29:48 19° ESE
EP 1 4.0 21:24:30 10° SSW 21:26:58 64° ESE 21:29:34 10° NE
Cosmos 1939 Rocket 3.1 21:28:30 18° SE 21:31:21 54° ENE 21:35:25 10° N
Cosmos 2084 4.4 21:27:42 10° NNW 21:31:21 32° NE 21:33:22 21° E
ATLAS CENTAUR R/B 4.4 21:27:45 10° W 21:31:47 23° NW 21:35:43 10° NNE
Cosmos 220 Rocket 4.1 21:29:05 10° NNW 21:33:15 55° ENE 21:35:36 24° SE
NOSS 7 (E) 4.4 21:30:48 10° SW 21:34:14 82° NW 21:37:38 10° NE
Iridium 4 Rocket 3.4 21:29:44 10° N 21:34:59 69° E 21:39:23 12° S
Cosmos 2369 3.6 21:29:38 10° SSW 21:35:18 79° ESE 21:41:01 10° NNE
SJ-11-01 4.3 21:36:23 12° SSE 21:40:44 88° WSW 21:45:27 10° NNW
OAO 2 Rocket 4.4 21:37:20 10° SW 21:41:36 28° SSE 21:42:57 24° SE
NOSS 7 (H) 4.1 21:41:03 10° SSW 21:44:17 71° ESE 21:47:41 10° NE
Cosmos 1980 Rocket 3.2 21:44:07 24° ESE 21:44:27 24° E 21:48:52 10° NE
ARGOS 4.1 21:49:32 24° E 21:51:21 30° ENE 21:55:59 10° N
ERS-1 Rocket 3.1 21:47:32 14° S 21:51:54 77° WSW 21:56:57 10° NNW
Cosmos 1898 Rocket 3.6 21:47:03 10° NNW 21:52:20 62° ENE 21:54:53 30° SE
SL-24 R/B - RUBIN 2 4.3 21:51:11 10° SSW 21:56:55 62° ESE 22:03:19 10° NE
RESURS DK-1 3.1 21:54:42 10° N 21:58:33 36° ENE 21:59:18 33° E
Cosmos 2173 Rocket 4.1 21:53:54 16° SSE 21:58:53 57° E 22:05:04 10° NNE
Cosmos 1763 Rocket 4.5 22:04:52 27° E 22:04:52 27° E 22:08:20 10° NE
Cosmos 2061 Rocket 4.0 22:00:39 17° S 22:05:30 63° E 22:11:42 10° NNE
Cosmos 2100 Rocket 3.9 22:02:00 13° S 22:07:38 72° E 22:13:52 10° NNE
Cosmos 2227 Rocket 3.1 22:04:40 10° NW 22:10:01 44° WSW 22:14:15 16° S
Cosmos 1500 3.3 22:09:17 26° SSW 22:11:17 72° W 22:15:03 10° N
MetOp-B 4.1 22:10:11 36° SSE 22:12:21 71° ENE 22:17:42 10° N
Cosmos 2263 Rocket 4.2 22:10:04 10° NNE 22:12:50 14° NE 22:14:41 12° ENE
Cosmos 468 Rocket 3.8 22:09:27 10° SSW 22:14:34 75° ESE 22:19:42 10° NNE
Cosmos 1825 Rocket 3.5 22:10:15 10° N 22:14:41 64° E 22:15:24 54° SE
Cosmos 2322 Rocket 4.3 22:18:33 10° ENE 22:18:33 10° ENE 22:18:41 10° ENE
Cosmos 1814 Rocket 3.9 22:17:56 20° S 22:21:38 74° ESE 22:26:57 10° NNE
Milstar 3 Cent rocket 4.3 22:04:26 10° WSW 22:21:55 41° SSW 22:26:27 30° SSE
Cosmos 1953 Rocket 3.6 22:18:35 10° N 22:22:58 58° E 22:23:10 57° E
Cosmos 1656 3.8 22:17:44 10° SSW 22:23:22 76° WNW 22:28:57 10° NNE
Cosmos 841 Rocket 4.2 22:24:39 35° ENE 22:24:39 35° ENE 22:28:32 10° NE
Cosmos 2297 Rocket 3.0 22:20:31 10° NW 22:25:52 45° WSW 22:28:59 23° SSW
Cosmos 1340 2.8 22:22:59 10° N 22:26:23 62° NE 22:26:23 62° NE
H-2A R/B 2.5 22:26:32 38° SSW 22:27:43 53° W 22:31:47 10° NNW
Cosmos 972 Rocket 4.4 22:21:55 10° NNW 22:27:46 85° WSW 22:30:25 38° SSE
Lacrosse 5 1.9 22:24:50 10° NW 22:29:55 71° NE 22:30:48 57° E
deb Chang Zheng 4 4.1 22:27:07 10° N 22:31:32 60° WNW 22:34:29 20° SSW
USA 215 3.5 22:29:22 35° E 22:32:08 62° NNE 22:38:34 10° NW
SPOT 5 3.2 22:31:47 37° S 22:33:41 64° WSW 22:38:34 10° NNW
BREEZE-M TANK 3.0 22:31:08 10° WNW 22:38:49 54° SW 22:38:58 53° SSW
Cosmos 1743 3.2 22:41:33 56° W 22:41:50 58° W 22:45:43 10° N
Cosmos 1758 Rocket 3.5 22:37:52 10° N 22:41:58 74° NNE 22:41:58 74° NNE
Cosmos 1725 Rocket 4.0 22:42:15 54° SE 22:43:14 61° E 22:49:22 10° NNE
YAOGAN 6 3.5 22:46:42 46° W 22:46:42 46° W 22:50:01 10° NNW
Cosmos 1459 Rocket 4.4 22:43:29 16° SSW 22:48:16 60° W 22:54:19 10° N
Lacrosse 5 rocket 3.0 22:46:50 10° WNW 22:49:06 22° WSW 22:49:06 22° WSW
H-2A R/B 2.3 22:50:51 49° ENE 22:50:51 49° ENE 22:55:20 10° N
Tiangong 1 3.7 22:47:56 10° W 22:48:47 17° W 22:48:47 17° W
Cosmos 2228 4.4 22:53:04 29° NNE 22:53:04 29° NNE 22:55:21 10° NNE
GEOS 3 Rocket 3.5 22:51:30 10° NE 22:56:08 69° ENE 22:56:08 69° ENE
Cosmos 2098 Rocket 4.0 22:55:16 45° S 22:57:40 87° E 23:03:48 10° N
Cosmos 1842 4.2 22:55:21 10° N 22:58:08 45° NNW 22:58:08 45° NNW
Cosmos 1937 Rocket 4.2 22:55:16 10° NNW 23:00:19 47° WSW 23:01:13 43° SW
Cosmos 2058 Rocket 3.5 23:02:59 61° N 23:02:59 61° N 23:06:46 10° N
Landsat 7 4.0 23:03:17 64° NNE 23:03:17 64° NNE 23:07:27 10° N
Cosmos 1697 Rocket 3.6 23:00:58 10° SW 23:06:25 48° WNW 23:11:54 10° NNE
CZ-4 R/B 4.2 23:02:00 10° NNE 23:05:47 57° NNE 23:05:47 57° NNE
BREEZE-M DEB (TANK) 3.8 23:04:05 10° WNW 23:05:25 31° WNW 23:05:25 31° WNW
SL-16 R/B 3.6 23:11:47 26° NE 23:11:47 26° NE 23:14:29 10° NE
SPOT 1/Viking Rocket 4.0 23:08:45 50° SW 23:09:20 53° W 23:14:28 10° NNW
Cosmos 2233 Rocket 4.0 23:12:32 62° ENE 23:12:32 62° ENE 23:18:19 10° NNE
SL-08 RB Rocket 4.2 23:13:21 57° WNW 23:13:21 57° WNW 23:17:33 10° NNW
Meteor 2-17 Rocket 4.4 23:15:56 67° ENE 23:15:56 67° ENE 23:21:34 10° NNE
Meteor 2-5 Rocket 4.3 23:11:50 10° N 23:16:58 47° NE 23:16:58 47° NE
Terra 2.4 23:19:09 52° N 23:19:09 52° N 23:22:49 10° N
Meteor 1-15 Rocket 4.2 23:18:10 77° SW 23:18:32 82° W 23:24:27 10° N
CZ-4B R/B 4.0 23:19:23 10° N 23:23:57 52° WNW 23:23:57 52° WNW
Cosmos 1980 Rocket 2.9 23:25:46 33° WSW 23:28:03 52° WNW 23:33:38 10° NNE
Cosmos 2360 Rocket 4.5 23:32:37 12° NE 23:32:37 12° NE 23:33:14 10° NE
ARGOS 4.1 23:31:03 37° WSW 23:31:27 38° W 23:36:27 10° NNW
Cosmos 1125 Rocket 4.1 23:35:27 10° NNW 23:39:32 53° NW 23:39:32 53° NW
